• In Lithuania
  • List of Countries
  • For 7 days
  • Water Temperature
  • Satellite Maps
  • Weather Map
  • Weather Widgets
  • user-avatar
    Login

    Hourly Weather Florence

    Today, 16 January, Tuesday

    Time Temperature Precipitation Wind Pressure Humidity
    00:00 +1°C° 0 mm 1 mps 769 mmHg 47%
    01:00 0°C° 0 mm 1 mps 769 mmHg 46%
    02:00 0°C° 0 mm 1 mps 769 mmHg 46%
    03:00 0°C° 0 mm 1 mps 769 mmHg 46%
    04:00 0°C° 0 mm 1 mps 769 mmHg 46%
    05:00 0°C° 0 mm 1 mps 769 mmHg 46%
    06:00 0°C° 0 mm 1 mps 770 mmHg 46%
    07:00 0°C° 0 mm 1 mps 770 mmHg 46%
    08:00 +2°C° 0 mm 1 mps 770 mmHg 43%
    09:00 +4°C° 0 mm 1 mps 770 mmHg 41%
    10:00 +5°C° 0 mm 1 mps 770 mmHg 38%
    11:00 +7°C° 0 mm 1 mps 769 mmHg 38%
    12:00 +8°C° 0 mm 0 mps 769 mmHg 37%
    13:00 +10°C° 0 mm 0 mps 768 mmHg 37%
    14:00 +9°C° 0 mm 0 mps 768 mmHg 40%
    15:00 +9°C° 0 mm 0 mps 767 mmHg 43%
    16:00 +10°C° 0 mm 1 mps 767 mmHg 46%
    17:00 +8°C° 0 mm 0 mps 767 mmHg 49%
    18:00 +6°C° 0 mm 0 mps 766 mmHg 53%
    19:00 +4°C° 0 mm 0 mps 766 mmHg 57%
    20:00 +5°C° 0 mm 1 mps 766 mmHg 58%
    21:00 +5°C° 0 mm 1 mps 766 mmHg 59%
    22:00 +4°C° 0 mm 2 mps 766 mmHg 61%
    23:00 +4°C° 0 mm 2 mps 765 mmHg 63%

    Tomorrow, 17 January, Wednesday

    Time Temperature Precipitation Wind Pressure Humidity
    00:00 +4°C° 0 mm 2 mps 765 mmHg 65%
    01:00 +4°C° 0 mm 2 mps 765 mmHg 67%
    02:00 +5°C° 0 mm 1 mps 764 mmHg 68%
    03:00 +5°C° 0 mm 1 mps 764 mmHg 70%
    04:00 +5°C° 0 mm 1 mps 764 mmHg 72%
    05:00 +4°C° 0.2 mm 1 mps 764 mmHg 75%
    06:00 +4°C° 0.2 mm 1 mps 764 mmHg 79%
    07:00 +4°C° 0.2 mm 1 mps 764 mmHg 82%
    08:00 +4°C° 0.5 mm 2 mps 764 mmHg 83%
    09:00 +4°C° 0.5 mm 2 mps 764 mmHg 84%
    10:00 +5°C° 0.5 mm 2 mps 764 mmHg 85%
    11:00 +3°C° 0.5 mm 3 mps 764 mmHg 86%
    12:00 +3°C° 0.5 mm 3 mps 763 mmHg 88%
    13:00 +3°C° 0.5 mm 3 mps 763 mmHg 89%
    14:00 +1°C° 0.3 mm 4 mps 763 mmHg 88%
    15:00 +1°C° 0.3 mm 4 mps 763 mmHg 87%
    16:00 0°C° 0.3 mm 5 mps 763 mmHg 87%
    17:00 -1°C° 0.1 mm 5 mps 763 mmHg 83%
    18:00 -1°C° 0.1 mm 5 mps 764 mmHg 79%
    19:00 -2°C° 0.1 mm 5 mps 764 mmHg 75%
    20:00 -4°C° 0 mm 5 mps 765 mmHg 72%
    21:00 -5°C° 0 mm 5 mps 766 mmHg 70%
    22:00 -5°C° 0 mm 5 mps 766 mmHg 67%
    23:00 -6°C° 0 mm 5 mps 766 mmHg 66%

    Day after tomorrow, 18 January, Thursday

    Time Temperature Precipitation Wind Pressure Humidity
    00:00 -7°C° 0 mm 5 mps 766 mmHg 65%
    01:00 -8°C° 0 mm 5 mps 767 mmHg 64%
    02:00 -8°C° 0 mm 4 mps 767 mmHg 63%
    03:00 -8°C° 0 mm 4 mps 767 mmHg 62%
    04:00 -6°C° 0 mm 3 mps 767 mmHg 62%
    05:00 -6°C° 0 mm 3 mps 767 mmHg 61%
    06:00 -6°C° 0 mm 3 mps 767 mmHg 60%
    07:00 -5°C° 0 mm 2 mps 767 mmHg 59%
    08:00 -4°C° 0 mm 3 mps 768 mmHg 54%
    09:00 -2°C° 0 mm 3 mps 768 mmHg 48%
    10:00 -1°C° 0 mm 3 mps 768 mmHg 43%
    11:00 +1°C° 0 mm 3 mps 768 mmHg 39%
    12:00 +3°C° 0 mm 3 mps 767 mmHg 35%
    13:00 +5°C° 0 mm 3 mps 767 mmHg 32%
    14:00 +5°C° 0 mm 3 mps 766 mmHg 34%
    15:00 +5°C° 0 mm 3 mps 765 mmHg 36%
    16:00 +7°C° 0 mm 2 mps 765 mmHg 38%
    17:00 +5°C° 0 mm 2 mps 765 mmHg 44%
    18:00 +3°C° 0 mm 2 mps 765 mmHg 49%
    19:00 +2°C° 0 mm 2 mps 765 mmHg 55%
    20:00 +1°C° 0 mm 2 mps 765 mmHg 55%
    21:00 +1°C° 0 mm 2 mps 765 mmHg 56%
    22:00 -1°C° 0 mm 2 mps 765 mmHg 57%
    23:00 -1°C° 0 mm 2 mps 765 mmHg 57%

    19 January, Friday

    Time Temperature Precipitation Wind Pressure Humidity
    00:00 -1°C° 0 mm 2 mps 765 mmHg 58%
    01:00 -1°C° 0 mm 2 mps 765 mmHg 58%
    02:00 -1°C° 0 mm 2 mps 764 mmHg 59%
    03:00 -1°C° 0 mm 2 mps 764 mmHg 60%
    04:00 -2°C° 0 mm 2 mps 764 mmHg 60%
    05:00 -2°C° 0 mm 2 mps 764 mmHg 61%
    06:00 -2°C° 0 mm 2 mps 764 mmHg 61%
    07:00 -2°C° 0 mm 2 mps 764 mmHg 61%
    08:00 +1°C° 0 mm 2 mps 764 mmHg 56%
    09:00 +2°C° 0 mm 2 mps 765 mmHg 50%
    10:00 +3°C° 0 mm 3 mps 765 mmHg 45%
    11:00 +5°C° 0 mm 3 mps 764 mmHg 42%
    12:00 +7°C° 0 mm 3 mps 764 mmHg 39%
    13:00 +9°C° 0 mm 3 mps 764 mmHg 36%
    14:00 +9°C° 0 mm 2 mps 763 mmHg 40%
    15:00 +9°C° 0 mm 2 mps 763 mmHg 43%
    16:00 +9°C° 0 mm 2 mps 763 mmHg 46%
    17:00 +7°C° 0 mm 2 mps 763 mmHg 51%
    18:00 +5°C° 0 mm 2 mps 763 mmHg 56%
    19:00 +4°C° 0 mm 2 mps 764 mmHg 61%
    20:00 +4°C° 0 mm 1 mps 764 mmHg 63%
    21:00 +4°C° 0 mm 1 mps 764 mmHg 64%
    22:00 +3°C° 0 mm 1 mps 764 mmHg 65%
    23:00 +3°C° 0 mm 1 mps 764 mmHg 66%

    20 January, Saturday

    Time Temperature Precipitation Wind Pressure Humidity
    00:00 +3°C° 0 mm 1 mps 764 mmHg 68%
    01:00 +2°C° 0 mm 1 mps 764 mmHg 69%
    02:00 +2°C° 0 mm 1 mps 764 mmHg 70%
    03:00 +2°C° 0 mm 1 mps 764 mmHg 71%
    04:00 +1°C° 0 mm 1 mps 764 mmHg 72%
    05:00 -1°C° 0 mm 2 mps 764 mmHg 71%
    06:00 -1°C° 0 mm 2 mps 765 mmHg 71%
    07:00 -1°C° 0 mm 2 mps 765 mmHg 70%
    08:00 +2°C° 0 mm 2 mps 765 mmHg 63%
    09:00 +4°C° 0 mm 2 mps 766 mmHg 55%
    10:00 +6°C° 0 mm 2 mps 766 mmHg 47%
    11:00 +8°C° 0 mm 3 mps 766 mmHg 44%
    12:00 +10°C° 0 mm 3 mps 765 mmHg 42%
    13:00 +12°C° 0 mm 3 mps 765 mmHg 39%
    14:00 +12°C° 0 mm 3 mps 764 mmHg 41%
    15:00 +12°C° 0 mm 3 mps 764 mmHg 42%
    16:00 +13°C° 0 mm 2 mps 764 mmHg 44%
    17:00 +10°C° 0 mm 2 mps 764 mmHg 50%
    18:00 +9°C° 0 mm 2 mps 764 mmHg 55%
    19:00 +7°C° 0 mm 2 mps 765 mmHg 60%
    20:00 +6°C° 0 mm 2 mps 765 mmHg 61%
    21:00 +6°C° 0 mm 2 mps 765 mmHg 62%
    22:00 +5°C° 0 mm 2 mps 766 mmHg 62%
    23:00 +5°C° 0 mm 2 mps 765 mmHg 63%

    21 January, Sunday

    Time Temperature Precipitation Wind Pressure Humidity
    00:00 +5°C° 0 mm 2 mps 765 mmHg 63%
    01:00 +4°C° 0 mm 2 mps 765 mmHg 64%
    02:00 +5°C° 0 mm 1 mps 765 mmHg 65%
    03:00 +5°C° 0 mm 1 mps 765 mmHg 66%
    04:00 +5°C° 0 mm 1 mps 765 mmHg 67%
    05:00 +4°C° 0 mm 1 mps 765 mmHg 69%
    06:00 +4°C° 0 mm 1 mps 765 mmHg 71%
    07:00 +3°C° 0 mm 0 mps 766 mmHg 72%
    08:00 +5°C° 0 mm 0 mps 766 mmHg 67%
    09:00 +7°C° 0 mm 0 mps 766 mmHg 62%
    10:00 +9°C° 0 mm 0 mps 766 mmHg 56%
    11:00 +12°C° 0 mm 1 mps 766 mmHg 53%
    12:00 +14°C° 0 mm 1 mps 766 mmHg 49%
    13:00 +15°C° 0 mm 2 mps 765 mmHg 45%
    14:00 +16°C° 0 mm 2 mps 765 mmHg 45%
    15:00 +16°C° 0 mm 2 mps 765 mmHg 44%
    16:00 +16°C° 0 mm 2 mps 764 mmHg 44%
    17:00 +14°C° 0 mm 2 mps 764 mmHg 48%
    18:00 +12°C° 0 mm 1 mps 764 mmHg 52%
    19:00 +10°C° 0 mm 1 mps 764 mmHg 55%
    20:00 +10°C° 0 mm 1 mps 764 mmHg 56%
    21:00 +9°C° 0 mm 1 mps 764 mmHg 57%
    22:00 +8°C° 0 mm 2 mps 764 mmHg 58%
    23:00 +7°C° 0 mm 2 mps 764 mmHg 60%
    Show more